PIMOHWEATHER Station Historical Data
Daily Summary for January 11, 2020 Units:  Metric    English   Both
Daily Weekly Monthly Yearly
  High: Low: Average:
Temperature: 34.0 °C 24.0 °C 27.8 °C
Dew Point: 26.0 °C 21.0 °C 23.1 °C
Humidity: 93% 57% 76%
Wind Speed: 17km/h 0km/h 7km/h
Wind Gust: 24km/h - -
Wind- - SSE
Pressure: 1011.5 hPa 1006.8 hPa -
Precipitation: 0.00 mm    
 
 
Tabular Data for January 11, 2020
Time Temperature Dew Point Pressure Wind Wind Speed Wind Gust Humidity Rainfall Rate (Hourly) solar
00:04 26.0 °C 22.0 °C 1010.4 hPa North 5 km/h 8 km/h 81% 0.00 mm 0.00 W/m2
00:09 26.0 °C 22.0 °C 1010.6 hPa North 10 km/h 16 km/h 82% 0.00 mm 0.00 W/m2
00:14 26.0 °C 22.0 °C 1010.4 hPa NNE 8 km/h 8 km/h 82% 0.00 mm 0.00 W/m2
00:19 26.0 °C 22.0 °C 1010.3 hPa Calm   4 km/h 82% 0.00 mm 0.00 W/m2
00:24 25.0 °C 22.0 °C 1010.3 hPa North 3 km/h 4 km/h 82% 0.00 mm 0.00 W/m2
00:29 25.0 °C 22.0 °C 1010.3 hPa North 4 km/h 4 km/h 82% 0.00 mm 0.00 W/m2
00:34 25.0 °C 22.0 °C 1010.1 hPa North 3 km/h 4 km/h 82% 0.00 mm 0.00 W/m2
00:39 25.0 °C 22.0 °C 1009.9 hPa NNE 3 km/h 4 km/h 82% 0.00 mm 0.00 W/m2
00:44 25.0 °C 22.0 °C 1009.9 hPa NNE 2 km/h 4 km/h 82% 0.00 mm 0.00 W/m2
00:49 25.0 °C 22.0 °C 1009.9 hPa NNE 2 km/h 4 km/h 82% 0.00 mm 0.00 W/m2
00:54 25.0 °C 22.0 °C 1009.9 hPa NNE 1 km/h 4 km/h 81% 0.00 mm 0.00 W/m2
00:59 25.0 °C 22.0 °C 1009.9 hPa North 4 km/h 8 km/h 80% 0.00 mm 0.00 W/m2
01:04 25.0 °C 21.0 °C 1009.9 hPa North 5 km/h 8 km/h 79% 0.00 mm 0.00 W/m2
01:09 25.0 °C 21.0 °C 1009.9 hPa Calm     79% 0.00 mm 0.00 W/m2
01:14 25.0 °C 21.0 °C 1009.9 hPa Calm     79% 0.00 mm 0.00 W/m2
01:19 26.0 °C 22.0 °C 1009.9 hPa Calm     79% 0.00 mm 0.00 W/m2
01:24 26.0 °C 22.0 °C 1009.9 hPa Calm     79% 0.00 mm 0.00 W/m2
01:29 26.0 °C 22.0 °C 1009.9 hPa ESE 3 km/h 4 km/h 79% 0.00 mm 0.00 W/m2
01:34 26.0 °C 22.0 °C 1009.9 hPa East 1 km/h 4 km/h 79% 0.00 mm 0.00 W/m2
01:39 26.0 °C 22.0 °C 1009.9 hPa SE 5 km/h 8 km/h 79% 0.00 mm 0.00 W/m2
01:44 26.0 °C 22.0 °C 1009.9 hPa SE 8 km/h 12 km/h 80% 0.00 mm 0.00 W/m2
01:49 26.0 °C 22.0 °C 1009.9 hPa SSE 5 km/h 12 km/h 79% 0.00 mm 0.00 W/m2
01:54 26.0 °C 22.0 °C 1009.9 hPa SE 5 km/h 8 km/h 79% 0.00 mm 0.00 W/m2
01:59 26.0 °C 22.0 °C 1009.9 hPa SE 3 km/h 4 km/h 79% 0.00 mm 0.00 W/m2
02:04 26.0 °C 22.0 °C 1009.9 hPa SSE 2 km/h 4 km/h 79% 0.00 mm 0.00 W/m2
02:09 26.0 °C 22.0 °C 1009.9 hPa Calm     78% 0.00 mm 0.00 W/m2
02:14 26.0 °C 22.0 °C 1009.9 hPa Calm     78% 0.00 mm 0.00 W/m2
02:19 26.0 °C 22.0 °C 1009.9 hPa Calm     78% 0.00 mm 0.00 W/m2
02:24 26.0 °C 22.0 °C 1009.8 hPa Calm     78% 0.00 mm 0.00 W/m2
02:29 26.0 °C 22.0 °C 1009.6 hPa Calm     78% 0.00 mm 0.00 W/m2
02:34 26.0 °C 22.0 °C 1009.8 hPa Calm     78% 0.00 mm 0.00 W/m2
02:39 26.0 °C 22.0 °C 1009.9 hPa North 3 km/h 4 km/h 78% 0.00 mm 0.00 W/m2
02:44 26.0 °C 22.0 °C 1009.8 hPa North 10 km/h 12 km/h 80% 0.00 mm 0.00 W/m2
02:49 26.0 °C 22.0 °C 1009.9 hPa North 8 km/h 12 km/h 80% 0.00 mm 0.00 W/m2
02:54 26.0 °C 22.0 °C 1009.9 hPa NNE 9 km/h 12 km/h 81% 0.00 mm 0.00 W/m2
02:59 26.0 °C 22.0 °C 1009.9 hPa NNE 5 km/h 8 km/h 81% 0.00 mm 0.00 W/m2
03:04 26.0 °C 22.0 °C 1009.9 hPa North 5 km/h 8 km/h 81% 0.00 mm 0.00 W/m2
03:09 25.0 °C 22.0 °C 1009.9 hPa NNE 5 km/h 8 km/h 81% 0.00 mm 0.00 W/m2
03:14 25.0 °C 22.0 °C 1009.9 hPa NNE 9 km/h 12 km/h 82% 0.00 mm 0.00 W/m2
03:19 25.0 °C 22.0 °C 1009.9 hPa North 5 km/h 8 km/h 82% 0.00 mm 0.00 W/m2
03:24 25.0 °C 22.0 °C 1009.8 hPa North 5 km/h 8 km/h 83% 0.00 mm 0.00 W/m2
03:29 25.0 °C 22.0 °C 1009.6 hPa North 6 km/h 8 km/h 83% 0.00 mm 0.00 W/m2
03:34 25.0 °C 22.0 °C 1009.6 hPa West 1 km/h 4 km/h 83% 0.00 mm 0.00 W/m2
03:39 25.0 °C 22.0 °C 1009.6 hPa NW 5 km/h 8 km/h 83% 0.00 mm 0.00 W/m2
03:44 25.0 °C 22.0 °C 1009.6 hPa NW 5 km/h 8 km/h 83% 0.00 mm 0.00 W/m2
03:49 25.0 °C 22.0 °C 1009.6 hPa NW 6 km/h 8 km/h 83% 0.00 mm 0.00 W/m2
03:54 25.0 °C 22.0 °C 1009.8 hPa NNW 6 km/h 8 km/h 83% 0.00 mm 0.00 W/m2
03:59 25.0 °C 22.0 °C 1009.8 hPa NW 4 km/h 8 km/h 83% 0.00 mm 0.00 W/m2
04:04 25.0 °C 22.0 °C 1009.9 hPa NW 6 km/h 8 km/h 83% 0.00 mm 0.00 W/m2
04:09 25.0 °C 22.0 °C 1009.9 hPa NNW 7 km/h 8 km/h 84% 0.00 mm 0.00 W/m2
04:14 25.0 °C 22.0 °C 1009.9 hPa NW 8 km/h 12 km/h 85% 0.00 mm 0.00 W/m2
04:19 25.0 °C 22.0 °C 1009.9 hPa NNW 8 km/h 12 km/h 85% 0.00 mm 0.00 W/m2
04:24 25.0 °C 23.0 °C 1009.9 hPa North 7 km/h 8 km/h 86% 0.00 mm 0.00 W/m2
04:29 25.0 °C 23.0 °C 1010.1 hPa North 6 km/h 12 km/h 86% 0.00 mm 0.00 W/m2
04:34 25.0 °C 23.0 °C 1010.0 hPa NW 5 km/h 8 km/h 87% 0.00 mm 0.00 W/m2
04:39 25.0 °C 23.0 °C 1010.0 hPa NNW 5 km/h 8 km/h 87% 0.00 mm 0.00 W/m2
04:44 25.0 °C 22.0 °C 1010.0 hPa North 5 km/h 8 km/h 87% 0.00 mm 0.00 W/m2
04:49 25.0 °C 22.0 °C 1010.0 hPa North 6 km/h 12 km/h 88% 0.00 mm 0.00 W/m2
04:54 25.0 °C 23.0 °C 1010.0 hPa North 5 km/h 8 km/h 88% 0.00 mm 0.00 W/m2
04:59 25.0 °C 22.0 °C 1010.0 hPa North 5 km/h 8 km/h 88% 0.00 mm 0.00 W/m2
05:04 25.0 °C 23.0 °C 1010.0 hPa North 8 km/h 8 km/h 89% 0.00 mm 0.00 W/m2
05:09 25.0 °C 23.0 °C 1010.0 hPa North 4 km/h 8 km/h 89% 0.00 mm 0.00 W/m2
05:14 24.0 °C 23.0 °C 1010.1 hPa NNE 10 km/h 12 km/h 89% 0.00 mm 0.00 W/m2
05:19 24.0 °C 23.0 °C 1010.0 hPa North 10 km/h 12 km/h 90% 0.00 mm 0.00 W/m2
05:24 24.0 °C 23.0 °C 1010.0 hPa North 11 km/h 16 km/h 90% 0.00 mm 0.00 W/m2
05:29 24.0 °C 23.0 °C 1010.0 hPa North 10 km/h 12 km/h 90% 0.00 mm 0.00 W/m2
05:34 24.0 °C 23.0 °C 1010.0 hPa NNE 10 km/h 12 km/h 91% 0.00 mm 0.00 W/m2
05:39 24.0 °C 23.0 °C 1010.2 hPa North 9 km/h 12 km/h 91% 0.00 mm 0.00 W/m2
05:44 24.0 °C 23.0 °C 1010.0 hPa North 8 km/h 12 km/h 91% 0.00 mm 0.00 W/m2
05:49 24.0 °C 23.0 °C 1010.0 hPa North 5 km/h 12 km/h 91% 0.00 mm 0.00 W/m2
05:54 24.0 °C 22.0 °C 1010.2 hPa North 5 km/h 8 km/h 91% 0.00 mm 0.00 W/m2
05:59 24.0 °C 22.0 °C 1010.0 hPa NNW 6 km/h 8 km/h 91% 0.00 mm 0.00 W/m2
06:04 24.0 °C 22.0 °C 1010.3 hPa North 9 km/h 12 km/h 91% 0.00 mm 0.00 W/m2
06:09 24.0 °C 22.0 °C 1010.3 hPa North 6 km/h 12 km/h 91% 0.00 mm 0.00 W/m2
06:14 24.0 °C 22.0 °C 1010.3 hPa North 10 km/h 12 km/h 91% 0.00 mm 0.00 W/m2
06:19 24.0 °C 22.0 °C 1010.3 hPa NNW 10 km/h 12 km/h 92% 0.00 mm 0.00 W/m2
06:24 24.0 °C 22.0 °C 1010.6 hPa NNW 10 km/h 12 km/h 92% 0.00 mm 1.79 W/m2
06:29 24.0 °C 22.0 °C 1010.6 hPa North 9 km/h 12 km/h 92% 0.00 mm 4.93 W/m2
06:34 24.0 °C 22.0 °C 1010.6 hPa NNW 9 km/h 12 km/h 93% 0.00 mm 8.84 W/m2
06:39 24.0 °C 22.0 °C 1010.6 hPa North 8 km/h 12 km/h 93% 0.00 mm 14.09 W/m2
06:44 24.0 °C 22.0 °C 1010.6 hPa North 9 km/h 12 km/h 93% 0.00 mm 19.61 W/m2
06:49 24.0 °C 22.0 °C 1010.6 hPa North 7 km/h 8 km/h 93% 0.00 mm 23.44 W/m2
06:54 24.0 °C 22.0 °C 1010.6 hPa North 10 km/h 12 km/h 92% 0.00 mm 28.05 W/m2
06:59 24.0 °C 22.0 °C 1010.6 hPa North 11 km/h 12 km/h 92% 0.00 mm 30.42 W/m2
07:04 24.0 °C 22.0 °C 1010.6 hPa North 10 km/h 12 km/h 92% 0.00 mm 33.01 W/m2
07:09 24.0 °C 22.0 °C 1010.6 hPa North 12 km/h 16 km/h 91% 0.00 mm 36.55 W/m2
07:14 24.0 °C 22.0 °C 1010.8 hPa NNE 10 km/h 12 km/h 91% 0.00 mm 39.44 W/m2
07:19 24.0 °C 22.0 °C 1010.8 hPa NNE 10 km/h 12 km/h 91% 0.00 mm 42.18 W/m2
07:24 24.0 °C 22.0 °C 1011.0 hPa North 10 km/h 12 km/h 90% 0.00 mm 45.34 W/m2
07:29 24.0 °C 22.0 °C 1010.8 hPa North 10 km/h 12 km/h 89% 0.00 mm 48.52 W/m2
07:34 25.0 °C 23.0 °C 1010.8 hPa North 8 km/h 12 km/h 89% 0.00 mm 52.03 W/m2
07:39 25.0 °C 23.0 °C 1011.0 hPa North 12 km/h 16 km/h 88% 0.00 mm 57.19 W/m2
07:44 25.0 °C 22.0 °C 1010.8 hPa North 11 km/h 12 km/h 86% 0.00 mm 58.92 W/m2
07:49 25.0 °C 23.0 °C 1010.8 hPa North 12 km/h 16 km/h 86% 0.00 mm 60.09 W/m2
07:54 25.0 °C 23.0 °C 1011.0 hPa North 10 km/h 16 km/h 85% 0.00 mm 65.99 W/m2
07:59 26.0 °C 23.0 °C 1011.0 hPa North 8 km/h 12 km/h 85% 0.00 mm 76.70 W/m2
08:04 26.0 °C 23.0 °C 1011.0 hPa North 9 km/h 12 km/h 84% 0.00 mm 95.66 W/m2
08:09 27.0 °C 23.0 °C 1011.0 hPa NE 9 km/h 12 km/h 81% 0.00 mm 111.49 W/m2
08:14 27.0 °C 23.0 °C 1011.3 hPa NNE 6 km/h 8 km/h 81% 0.00 mm 117.56 W/m2
08:19 27.0 °C 23.0 °C 1011.3 hPa NNE 8 km/h 8 km/h 81% 0.00 mm 119.15 W/m2
08:24 26.0 °C 23.0 °C 1011.1 hPa North 7 km/h 8 km/h 80% 0.00 mm 130.14 W/m2
08:29 27.0 °C 23.0 °C 1011.3 hPa NNW 4 km/h 8 km/h 80% 0.00 mm 134.22 W/m2
08:34 27.0 °C 23.0 °C 1011.3 hPa ENE 6 km/h 8 km/h 79% 0.00 mm 120.28 W/m2
08:39 27.0 °C 23.0 °C 1011.3 hPa NE 6 km/h 8 km/h 79% 0.00 mm 130.85 W/m2
08:44 27.0 °C 23.0 °C 1011.3 hPa North 9 km/h 12 km/h 79% 0.00 mm 145.92 W/m2
08:49 28.0 °C 23.0 °C 1011.3 hPa NNE 8 km/h 8 km/h 78% 0.00 mm 168.04 W/m2
08:54 28.0 °C 23.0 °C 1011.3 hPa SE 4 km/h 8 km/h 76% 0.00 mm 171.02 W/m2
08:59 28.0 °C 23.0 °C 1011.5 hPa ENE 6 km/h 8 km/h 74% 0.00 mm 242.59 W/m2
09:04 28.0 °C 23.0 °C 1011.2 hPa NNE 5 km/h 8 km/h 74% 0.00 mm 244.10 W/m2
09:09 29.0 °C 23.0 °C 1011.2 hPa North 8 km/h 12 km/h 72% 0.00 mm 224.23 W/m2
09:14 29.0 °C 23.0 °C 1011.2 hPa North 5 km/h 12 km/h 71% 0.00 mm 216.90 W/m2
09:19 29.0 °C 23.0 °C 1011.2 hPa North 10 km/h 16 km/h 71% 0.00 mm 258.52 W/m2
09:24 28.0 °C 23.0 °C 1011.2 hPa North 14 km/h 16 km/h 72% 0.00 mm 291.47 W/m2
09:29 29.0 °C 23.0 °C 1011.2 hPa North 15 km/h 20 km/h 71% 0.00 mm 299.74 W/m2
09:34 29.0 °C 23.0 °C 1011.1 hPa North 10 km/h 16 km/h 71% 0.00 mm 279.39 W/m2
09:39 29.0 °C 23.0 °C 1011.1 hPa NNE 13 km/h 16 km/h 70% 0.00 mm 263.36 W/m2
09:44 29.0 °C 23.0 °C 1010.9 hPa North 11 km/h 16 km/h 70% 0.00 mm 267.62 W/m2
09:49 29.0 °C 23.0 °C 1010.9 hPa North 13 km/h 16 km/h 69% 0.00 mm 235.65 W/m2
09:54 29.0 °C 23.0 °C 1010.9 hPa NNE 12 km/h 12 km/h 70% 0.00 mm 238.65 W/m2
09:59 29.0 °C 23.0 °C 1010.9 hPa NNW 15 km/h 20 km/h 70% 0.00 mm 227.22 W/m2
10:04 29.0 °C 23.0 °C 1010.9 hPa NNE 10 km/h 16 km/h 70% 0.00 mm 283.77 W/m2
10:09 31.0 °C 24.0 °C 1010.9 hPa NE 13 km/h 16 km/h 69% 0.00 mm 295.00 W/m2
10:14 30.0 °C 23.0 °C 1010.5 hPa North 10 km/h 16 km/h 68% 0.00 mm 300.84 W/m2
10:19 31.0 °C 23.0 °C 1010.7 hPa North 10 km/h 12 km/h 68% 0.00 mm 321.42 W/m2
10:24 31.0 °C 23.0 °C 1010.5 hPa North 7 km/h 12 km/h 65% 0.00 mm 329.84 W/m2
10:29 32.0 °C 23.0 °C 1010.5 hPa East 12 km/h 16 km/h 62% 0.00 mm 351.69 W/m2
10:34 32.0 °C 23.0 °C 1010.5 hPa SE 5 km/h 12 km/h 61% 0.00 mm 363.82 W/m2
10:39 32.0 °C 24.0 °C 1010.4 hPa East 10 km/h 16 km/h 61% 0.00 mm 376.13 W/m2
10:44 32.0 °C 24.0 °C 1010.4 hPa ESE 8 km/h 12 km/h 60% 0.00 mm 397.32 W/m2
10:49 32.0 °C 23.0 °C 1010.5 hPa NE 12 km/h 20 km/h 61% 0.00 mm 412.56 W/m2
10:54 32.0 °C 24.0 °C 1010.2 hPa NE 8 km/h 16 km/h 61% 0.00 mm 427.12 W/m2
10:59 32.0 °C 24.0 °C 1010.2 hPa NE 15 km/h 24 km/h 61% 0.00 mm 463.92 W/m2
11:04 32.0 °C 24.0 °C 1010.2 hPa NNE 10 km/h 12 km/h 61% 0.00 mm 473.29 W/m2
11:09 32.0 °C 24.0 °C 1010.0 hPa East 12 km/h 12 km/h 62% 0.00 mm 491.59 W/m2
11:14 32.0 °C 24.0 °C 1009.8 hPa NNE 14 km/h 16 km/h 63% 0.00 mm 486.75 W/m2
11:19 32.0 °C 24.0 °C 1009.8 hPa ENE 11 km/h 16 km/h 64% 0.00 mm 494.60 W/m2
11:24 32.0 °C 23.0 °C 1009.8 hPa NE 17 km/h 24 km/h 60% 0.00 mm 508.99 W/m2
11:29 33.0 °C 23.0 °C 1009.8 hPa ENE 12 km/h 16 km/h 59% 0.00 mm 509.35 W/m2
11:34 33.0 °C 24.0 °C 1009.6 hPa NE 8 km/h 16 km/h 58% 0.00 mm 523.25 W/m2
11:39 34.0 °C 23.0 °C 1009.5 hPa ESE 17 km/h 20 km/h 58% 0.00 mm 543.88 W/m2
11:44 33.0 °C 23.0 °C 1009.5 hPa ENE 15 km/h 20 km/h 58% 0.00 mm 572.97 W/m2
11:49 33.0 °C 23.0 °C 1009.1 hPa East 10 km/h 16 km/h 57% 0.00 mm 512.50 W/m2
11:54 33.0 °C 23.0 °C 1009.1 hPa ESE 11 km/h 16 km/h 58% 0.00 mm 134.20 W/m2
11:59 33.0 °C 24.0 °C 1009.1 hPa ESE 15 km/h 16 km/h 60% 0.00 mm 118.42 W/m2
12:04 32.0 °C 24.0 °C 1009.1 hPa SE 13 km/h 20 km/h 66% 0.00 mm 105.63 W/m2
12:09 32.0 °C 25.0 °C 1009.0 hPa SSE 8 km/h 16 km/h 70% 0.00 mm 101.11 W/m2
12:14 32.0 °C 26.0 °C 1009.0 hPa SSW 8 km/h 12 km/h 71% 0.00 mm 74.74 W/m2
12:19 31.0 °C 25.0 °C 1008.8 hPa SSW 8 km/h 12 km/h 72% 0.00 mm 71.45 W/m2
12:24 31.0 °C 25.0 °C 1008.8 hPa South 6 km/h 8 km/h 74% 0.00 mm 73.64 W/m2
12:29 30.0 °C 25.0 °C 1008.8 hPa SW 7 km/h 12 km/h 75% 0.00 mm 85.61 W/m2
12:34 30.0 °C 25.0 °C 1008.8 hPa SSE 8 km/h 12 km/h 75% 0.00 mm 90.96 W/m2
12:39 30.0 °C 25.0 °C 1008.5 hPa South 6 km/h 8 km/h 75% 0.00 mm 115.85 W/m2
12:44 29.0 °C 24.0 °C 1008.5 hPa South 9 km/h 12 km/h 75% 0.00 mm 117.95 W/m2
12:49 29.0 °C 24.0 °C 1008.4 hPa SSW 15 km/h 20 km/h 76% 0.00 mm 110.64 W/m2
12:54 29.0 °C 24.0 °C 1008.2 hPa South 10 km/h 12 km/h 75% 0.00 mm 109.54 W/m2
12:59 29.0 °C 24.0 °C 1008.2 hPa South 10 km/h 16 km/h 75% 0.00 mm 419.29 W/m2
13:04 30.0 °C 24.0 °C 1008.2 hPa SSW 11 km/h 16 km/h 74% 0.00 mm 469.96 W/m2
13:09 31.0 °C 25.0 °C 1008.0 hPa South 10 km/h 12 km/h 71% 0.00 mm 511.75 W/m2
13:14 31.0 °C 24.0 °C 1007.8 hPa South 10 km/h 16 km/h 69% 0.00 mm 298.39 W/m2
13:19 30.0 °C 24.0 °C 1007.8 hPa South 12 km/h 16 km/h 71% 0.00 mm 157.53 W/m2
13:24 30.0 °C 24.0 °C 1007.8 hPa South 12 km/h 16 km/h 71% 0.00 mm 165.17 W/m2
13:29 30.0 °C 24.0 °C 1007.5 hPa SSW 9 km/h 12 km/h 70% 0.00 mm 319.61 W/m2
13:34 30.0 °C 24.0 °C 1007.5 hPa SSW 10 km/h 12 km/h 70% 0.00 mm 304.07 W/m2
13:39 30.0 °C 24.0 °C 1007.3 hPa South 10 km/h 12 km/h 71% 0.00 mm 274.49 W/m2
13:44 31.0 °C 24.0 °C 1007.2 hPa South 8 km/h 12 km/h 70% 0.00 mm 173.27 W/m2
13:49 30.0 °C 24.0 °C 1007.2 hPa South 8 km/h 12 km/h 70% 0.00 mm 148.32 W/m2
13:54 30.0 °C 24.0 °C 1007.2 hPa SW 6 km/h 8 km/h 70% 0.00 mm 129.87 W/m2
13:59 30.0 °C 24.0 °C 1007.1 hPa WSW 15 km/h 16 km/h 72% 0.00 mm 144.77 W/m2
14:04 30.0 °C 24.0 °C 1007.1 hPa WSW 5 km/h 12 km/h 71% 0.00 mm 147.75 W/m2
14:09 30.0 °C 24.0 °C 1007.1 hPa West 7 km/h 8 km/h 72% 0.00 mm 204.93 W/m2
14:14 31.0 °C 24.0 °C 1007.1 hPa South 7 km/h 8 km/h 72% 0.00 mm 534.85 W/m2
14:19 31.0 °C 24.0 °C 1007.1 hPa SW 7 km/h 12 km/h 69% 0.00 mm 303.74 W/m2
14:24 31.0 °C 24.0 °C 1007.0 hPa South 4 km/h 8 km/h 67% 0.00 mm 297.22 W/m2
14:29 31.0 °C 24.0 °C 1007.0 hPa SSE 4 km/h 8 km/h 68% 0.00 mm 117.74 W/m2
14:34 31.0 °C 24.0 °C 1007.0 hPa South 4 km/h 4 km/h 70% 0.00 mm 96.17 W/m2
14:39 31.0 °C 24.0 °C 1006.9 hPa WNW 7 km/h 12 km/h 70% 0.00 mm 107.26 W/m2
14:44 31.0 °C 24.0 °C 1006.8 hPa West 9 km/h 12 km/h 70% 0.00 mm 425.53 W/m2
14:49 31.0 °C 25.0 °C 1006.8 hPa South 5 km/h 8 km/h 71% 0.00 mm 355.65 W/m2
14:54 31.0 °C 25.0 °C 1006.8 hPa NW 7 km/h 12 km/h 71% 0.00 mm 445.27 W/m2
14:59 31.0 °C 24.0 °C 1006.8 hPa SW 6 km/h 12 km/h 69% 0.00 mm 388.03 W/m2
15:04 31.0 °C 24.0 °C 1007.0 hPa SSE 7 km/h 8 km/h 68% 0.00 mm 122.70 W/m2
15:09 31.0 °C 24.0 °C 1006.8 hPa SSW 6 km/h 8 km/h 69% 0.00 mm 90.34 W/m2
15:14 30.0 °C 24.0 °C 1006.8 hPa South 5 km/h 8 km/h 70% 0.00 mm 70.66 W/m2
15:19 30.0 °C 24.0 °C 1007.1 hPa South 1 km/h 4 km/h 70% 0.00 mm 44.52 W/m2
15:24 30.0 °C 24.0 °C 1007.1 hPa South 2 km/h 4 km/h 70% 0.00 mm 58.01 W/m2
15:29 30.0 °C 24.0 °C 1007.1 hPa SSW 4 km/h 8 km/h 70% 0.00 mm 86.66 W/m2
15:34 30.0 °C 24.0 °C 1007.1 hPa SSW 1 km/h 8 km/h 69% 0.00 mm 87.54 W/m2
15:39 30.0 °C 24.0 °C 1007.1 hPa WSW 5 km/h 8 km/h 70% 0.00 mm 95.17 W/m2
15:44 30.0 °C 24.0 °C 1007.2 hPa SSW 5 km/h 8 km/h 70% 0.00 mm 93.15 W/m2
15:49 30.0 °C 24.0 °C 1007.2 hPa WNW 4 km/h 8 km/h 71% 0.00 mm 125.02 W/m2
15:54 30.0 °C 24.0 °C 1007.2 hPa SSW 5 km/h 8 km/h 72% 0.00 mm 142.22 W/m2
15:59 30.0 °C 25.0 °C 1007.2 hPa West 8 km/h 12 km/h 75% 0.00 mm 106.97 W/m2
16:04 30.0 °C 25.0 °C 1007.2 hPa WNW 5 km/h 8 km/h 75% 0.00 mm 284.18 W/m2
16:09 30.0 °C 25.0 °C 1007.2 hPa WSW 7 km/h 8 km/h 74% 0.00 mm 266.00 W/m2
16:14 31.0 °C 25.0 °C 1007.2 hPa SSW 5 km/h 8 km/h 72% 0.00 mm 290.32 W/m2
16:19 31.0 °C 24.0 °C 1007.2 hPa SSE 6 km/h 8 km/h 69% 0.00 mm 288.64 W/m2
16:24 31.0 °C 24.0 °C 1007.3 hPa South 9 km/h 12 km/h 67% 0.00 mm 270.21 W/m2
16:29 32.0 °C 24.0 °C 1007.3 hPa South 6 km/h 12 km/h 65% 0.00 mm 270.26 W/m2
16:34 32.0 °C 24.0 °C 1007.3 hPa WNW 9 km/h 12 km/h 65% 0.00 mm 259.45 W/m2
16:39 31.0 °C 24.0 °C 1007.5 hPa West 9 km/h 12 km/h 66% 0.00 mm 254.52 W/m2
16:44 31.0 °C 24.0 °C 1007.5 hPa SSW 6 km/h 12 km/h 66% 0.00 mm 206.30 W/m2
16:49 31.0 °C 24.0 °C 1007.5 hPa WSW 5 km/h 8 km/h 67% 0.00 mm 106.23 W/m2
16:54 31.0 °C 25.0 °C 1007.5 hPa West 4 km/h 8 km/h 68% 0.00 mm 81.19 W/m2
16:59 31.0 °C 25.0 °C 1007.8 hPa NW 5 km/h 8 km/h 69% 0.00 mm 73.51 W/m2
17:04 31.0 °C 25.0 °C 1007.8 hPa NW 10 km/h 12 km/h 70% 0.00 mm 65.23 W/m2
17:09 31.0 °C 24.0 °C 1007.8 hPa NW 8 km/h 12 km/h 70% 0.00 mm 52.27 W/m2
17:14 30.0 °C 24.0 °C 1007.8 hPa West 4 km/h 8 km/h 71% 0.00 mm 39.46 W/m2
17:19 30.0 °C 24.0 °C 1008.0 hPa WSW 7 km/h 8 km/h 72% 0.00 mm 29.05 W/m2
17:24 30.0 °C 25.0 °C 1008.2 hPa West 9 km/h 12 km/h 74% 0.00 mm 22.56 W/m2
17:29 30.0 °C 25.0 °C 1008.2 hPa WNW 10 km/h 12 km/h 75% 0.00 mm 16.62 W/m2
17:34 30.0 °C 25.0 °C 1008.2 hPa NW 10 km/h 12 km/h 76% 0.00 mm 9.65 W/m2
17:39 29.0 °C 25.0 °C 1008.2 hPa NW 11 km/h 20 km/h 77% 0.00 mm 5.32 W/m2
17:44 29.0 °C 25.0 °C 1008.2 hPa WNW 11 km/h 16 km/h 77% 0.00 mm 2.54 W/m2
17:49 29.0 °C 24.0 °C 1008.2 hPa NW 12 km/h 16 km/h 76% 0.00 mm 0.00 W/m2
17:54 29.0 °C 24.0 °C 1008.2 hPa NNW 10 km/h 12 km/h 75% 0.00 mm 0.00 W/m2
17:59 29.0 °C 24.0 °C 1008.2 hPa NW 9 km/h 12 km/h 75% 0.00 mm 0.00 W/m2
18:04 29.0 °C 24.0 °C 1008.5 hPa NNW 10 km/h 12 km/h 75% 0.00 mm 0.00 W/m2
18:09 29.0 °C 24.0 °C 1008.4 hPa North 10 km/h 12 km/h 75% 0.00 mm 0.00 W/m2
18:14 29.0 °C 24.0 °C 1008.5 hPa North 8 km/h 12 km/h 75% 0.00 mm 0.00 W/m2
18:19 29.0 °C 24.0 °C 1008.5 hPa North 12 km/h 16 km/h 75% 0.00 mm 0.00 W/m2
18:24 29.0 °C 24.0 °C 1008.5 hPa North 14 km/h 20 km/h 76% 0.00 mm 0.00 W/m2
18:29 29.0 °C 24.0 °C 1008.5 hPa North 10 km/h 16 km/h 76% 0.00 mm 0.00 W/m2
18:34 28.0 °C 24.0 °C 1008.5 hPa North 14 km/h 16 km/h 77% 0.00 mm 0.00 W/m2
18:39 28.0 °C 24.0 °C 1008.5 hPa NNE 8 km/h 12 km/h 77% 0.00 mm 0.00 W/m2
18:44 28.0 °C 24.0 °C 1008.7 hPa North 8 km/h 8 km/h 77% 0.00 mm 0.00 W/m2
18:49 28.0 °C 24.0 °C 1008.9 hPa NNE 8 km/h 12 km/h 77% 0.00 mm 0.00 W/m2
18:54 28.0 °C 24.0 °C 1008.9 hPa NNE 9 km/h 12 km/h 77% 0.00 mm 0.00 W/m2
18:59 28.0 °C 24.0 °C 1008.9 hPa North 9 km/h 12 km/h 78% 0.00 mm 0.00 W/m2
19:04 28.0 °C 24.0 °C 1008.9 hPa NNE 6 km/h 8 km/h 78% 0.00 mm 0.00 W/m2
19:09 28.0 °C 24.0 °C 1008.9 hPa North 8 km/h 8 km/h 79% 0.00 mm 0.00 W/m2
19:14 28.0 °C 24.0 °C 1009.2 hPa North 6 km/h 8 km/h 79% 0.00 mm 0.00 W/m2
19:19 28.0 °C 24.0 °C 1009.2 hPa North 6 km/h 8 km/h 79% 0.00 mm 0.00 W/m2
19:24 28.0 °C 24.0 °C 1009.2 hPa NNE 5 km/h 8 km/h 78% 0.00 mm 0.00 W/m2
19:29 28.0 °C 23.0 °C 1009.2 hPa NNE 6 km/h 8 km/h 78% 0.00 mm 0.00 W/m2
19:34 28.0 °C 23.0 °C 1009.2 hPa NNE 4 km/h 8 km/h 77% 0.00 mm 0.00 W/m2
19:39 28.0 °C 23.0 °C 1009.4 hPa NNE 5 km/h 8 km/h 77% 0.00 mm 0.00 W/m2
19:44 28.0 °C 23.0 °C 1009.4 hPa NNE 8 km/h 12 km/h 76% 0.00 mm 0.00 W/m2
19:49 28.0 °C 23.0 °C 1009.4 hPa NE 6 km/h 8 km/h 75% 0.00 mm 0.00 W/m2
19:54 28.0 °C 23.0 °C 1009.6 hPa NE 5 km/h 8 km/h 74% 0.00 mm 0.00 W/m2
19:59 28.0 °C 23.0 °C 1009.6 hPa NE 7 km/h 8 km/h 74% 0.00 mm 0.00 W/m2
20:04 28.0 °C 23.0 °C 1009.6 hPa NE 9 km/h 12 km/h 73% 0.00 mm 0.00 W/m2
20:09 28.0 °C 23.0 °C 1009.6 hPa NE 9 km/h 12 km/h 73% 0.00 mm 0.00 W/m2
20:14 28.0 °C 23.0 °C 1009.6 hPa NE 5 km/h 8 km/h 73% 0.00 mm 0.00 W/m2
20:19 28.0 °C 23.0 °C 1009.8 hPa NE 6 km/h 8 km/h 73% 0.00 mm 0.00 W/m2
20:24 28.0 °C 23.0 °C 1009.6 hPa NNE 8 km/h 12 km/h 73% 0.00 mm 0.00 W/m2
20:29 28.0 °C 23.0 °C 1009.9 hPa NE 10 km/h 12 km/h 74% 0.00 mm 0.00 W/m2
20:34 28.0 °C 23.0 °C 1009.9 hPa NNE 5 km/h 12 km/h 74% 0.00 mm 0.00 W/m2
20:39 28.0 °C 23.0 °C 1009.9 hPa NE 10 km/h 12 km/h 75% 0.00 mm 0.00 W/m2
20:44 28.0 °C 23.0 °C 1009.9 hPa NNE 5 km/h 8 km/h 75% 0.00 mm 0.00 W/m2
20:49 28.0 °C 23.0 °C 1009.9 hPa ENE 4 km/h 8 km/h 75% 0.00 mm 0.00 W/m2
20:54 28.0 °C 23.0 °C 1009.9 hPa WNW 5 km/h 8 km/h 75% 0.00 mm 0.00 W/m2
20:59 28.0 °C 23.0 °C 1009.9 hPa ESE 4 km/h 8 km/h 75% 0.00 mm 0.00 W/m2
21:04 28.0 °C 23.0 °C 1009.9 hPa NE 6 km/h 8 km/h 74% 0.00 mm 0.00 W/m2
21:09 28.0 °C 23.0 °C 1009.9 hPa East 4 km/h 8 km/h 75% 0.00 mm 0.00 W/m2
21:14 28.0 °C 23.0 °C 1010.1 hPa ENE 4 km/h 8 km/h 75% 0.00 mm 0.00 W/m2
21:19 28.0 °C 23.0 °C 1009.9 hPa NNE 3 km/h 4 km/h 75% 0.00 mm 0.00 W/m2
21:24 28.0 °C 23.0 °C 1009.9 hPa SSE 1 km/h 4 km/h 75% 0.00 mm 0.00 W/m2
21:29 28.0 °C 23.0 °C 1009.9 hPa SE 5 km/h 12 km/h 75% 0.00 mm 0.00 W/m2
21:34 27.0 °C 23.0 °C 1009.9 hPa ENE 4 km/h 4 km/h 75% 0.00 mm 0.00 W/m2
21:39 27.0 °C 23.0 °C 1009.9 hPa East 3 km/h 4 km/h 75% 0.00 mm 0.00 W/m2
21:44 27.0 °C 23.0 °C 1009.9 hPa East 5 km/h 8 km/h 75% 0.00 mm 0.00 W/m2
21:49 27.0 °C 22.0 °C 1009.9 hPa NE 4 km/h 8 km/h 74% 0.00 mm 0.00 W/m2
21:54 27.0 °C 22.0 °C 1009.9 hPa East 3 km/h 4 km/h 74% 0.00 mm 0.00 W/m2
21:59 27.0 °C 22.0 °C 1009.9 hPa East 4 km/h 4 km/h 74% 0.00 mm 0.00 W/m2
22:04 27.0 °C 22.0 °C 1009.9 hPa ESE 4 km/h 4 km/h 74% 0.00 mm 0.00 W/m2
22:09 27.0 °C 22.0 °C 1010.1 hPa ESE 3 km/h 4 km/h 75% 0.00 mm 0.00 W/m2
22:14 27.0 °C 22.0 °C 1009.9 hPa SE 2 km/h 4 km/h 75% 0.00 mm 0.00 W/m2
22:19 27.0 °C 22.0 °C 1009.9 hPa East 3 km/h 4 km/h 75% 0.00 mm 0.00 W/m2
22:24 27.0 °C 22.0 °C 1009.9 hPa East 1 km/h 4 km/h 75% 0.00 mm 0.00 W/m2
22:29 27.0 °C 22.0 °C 1009.9 hPa ESE 5 km/h 8 km/h 75% 0.00 mm 0.00 W/m2
22:34 27.0 °C 22.0 °C 1009.9 hPa East 3 km/h 4 km/h 75% 0.00 mm 0.00 W/m2
22:39 27.0 °C 22.0 °C 1009.9 hPa ESE 3 km/h 8 km/h 74% 0.00 mm 0.00 W/m2
22:44 27.0 °C 22.0 °C 1009.9 hPa ESE 6 km/h 8 km/h 74% 0.00 mm 0.00 W/m2
22:49 27.0 °C 22.0 °C 1009.9 hPa East 3 km/h 4 km/h 75% 0.00 mm 0.00 W/m2
22:54 27.0 °C 22.0 °C 1009.8 hPa ENE 2 km/h 4 km/h 75% 0.00 mm 0.00 W/m2
22:59 27.0 °C 22.0 °C 1009.8 hPa East 3 km/h 4 km/h 75% 0.00 mm 0.00 W/m2
23:04 27.0 °C 22.0 °C 1009.6 hPa SSE 6 km/h 8 km/h 74% 0.00 mm 0.00 W/m2
23:09 27.0 °C 22.0 °C 1009.6 hPa ESE 5 km/h 8 km/h 74% 0.00 mm 0.00 W/m2
23:14 27.0 °C 22.0 °C 1009.6 hPa SE 4 km/h 4 km/h 74% 0.00 mm 0.00 W/m2
23:19 27.0 °C 22.0 °C 1009.6 hPa East 4 km/h 8 km/h 75% 0.00 mm 0.00 W/m2
23:24 27.0 °C 22.0 °C 1009.6 hPa NW 1 km/h 4 km/h 75% 0.00 mm 0.00 W/m2
23:29 27.0 °C 22.0 °C 1009.6 hPa NE 4 km/h 8 km/h 75% 0.00 mm 0.00 W/m2
23:34 27.0 °C 22.0 °C 1009.6 hPa ENE 3 km/h 8 km/h 76% 0.00 mm 0.00 W/m2
23:39 27.0 °C 22.0 °C 1009.6 hPa ENE 5 km/h 8 km/h 76% 0.00 mm 0.00 W/m2
23:44 27.0 °C 22.0 °C 1009.6 hPa SSW 3 km/h 4 km/h 76% 0.00 mm 0.00 W/m2
23:49 27.0 °C 22.0 °C 1009.6 hPa East 3 km/h 4 km/h 76% 0.00 mm 0.00 W/m2
23:54 27.0 °C 22.0 °C 1009.6 hPa SE 3 km/h 4 km/h 76% 0.00 mm 0.00 W/m2
23:59 27.0 °C 22.0 °C 1009.6 hPa East 2 km/h 4 km/h 76% 0.00 mm 0.00 W/m2
PIMOHWEATHER Philippines
Compliments of Weather Underground - 2 mb